| time (UTC) | temp F | wind direction | speed MPH | gust MPH | rain 1hr in | rain 24hr in | rain mn in | humidity % | barometer mb |
| 20260509111528 | 50 | 122 | 2.0 | 6.0 | 0.00 | 0.00 | 0.00 | 60 | 1021.1 |
| 20260509111020 | 50 | 262 | 2.0 | 6.0 | 0.00 | 0.00 | 0.00 | 61 | 1020.9 |
| 20260509110528 | 51 | 288 | 2.0 | 8.0 | 0.00 | 0.00 | 0.00 | 61 | 1020.9 |
| 20260509110027 | 51 | 57 | 3.0 | 10.0 | 0.00 | 0.00 | 0.00 | 60 | 1020.8 |
| 20260509105532 | 51 | 55 | 2.0 | 10.0 | 0.00 | 0.00 | 0.00 | 61 | 1020.7 |
| 20260509105022 | 51 | 37 | 1.0 | 5.0 | 0.00 | 0.00 | 0.00 | 59 | 1020.7 |
| 20260509104520 | 51 | 355 | 1.0 | 8.0 | 0.00 | 0.00 | 0.00 | 59 | 1020.6 |
| 20260509104030 | 51 | 306 | 2.0 | 9.0 | 0.00 | 0.00 | 0.00 | 58 | 1020.5 |
| 20260509103519 | 51 | 42 | 2.0 | 9.0 | 0.00 | 0.00 | 0.00 | 59 | 1020.3 |
| 20260509103037 | 51 | 9 | 2.0 | 8.0 | 0.00 | 0.00 | 0.00 | 60 | 1020.3 |
| 20260509102525 | 50 | 21 | 2.0 | 7.0 | 0.00 | 0.00 | 0.00 | 64 | 1020.1 |
| 20260509102037 | 49 | 36 | 4.0 | 8.0 | 0.00 | 0.00 | 0.00 | 73 | 1020.0 |
| 20260509101547 | 48 | 177 | 3.0 | 8.0 | 0.00 | 0.00 | 0.00 | 74 | 1020.0 |
| 20260509101021 | 48 | 187 | 4.0 | 6.0 | 0.00 | 0.00 | 0.00 | 76 | 1019.9 |
| 20260509100533 | 48 | 231 | 2.0 | 6.0 | 0.00 | 0.00 | 0.00 | 72 | 1019.9 |
| 20260509100030 | 49 | 219 | 3.0 | 6.0 | 0.00 | 0.00 | 0.00 | 71 | 1019.6 |
| 20260509095518 | 51 | 133 | 2.0 | 6.0 | 0.00 | 0.00 | 0.00 | 65 | 1019.6 |
| 20260509095028 | 51 | 18 | 2.0 | 6.0 | 0.00 | 0.00 | 0.00 | 66 | 1019.5 |
| 20260509094530 | 52 | 180 | 3.0 | 6.0 | 0.00 | 0.00 | 0.00 | 65 | 1019.5 |
| 20260509094035 | 51 | 11 | 2.0 | 4.0 | 0.00 | 0.00 | 0.00 | 62 | 1019.5 |
| 20260509093523 | 49 | 29 | 1.0 | 5.0 | 0.00 | 0.00 | 0.00 | 67 | 1019.5 |
| 20260509093020 | 48 | 190 | 2.0 | 5.0 | 0.00 | 0.00 | 0.00 | 74 | 1019.5 |
| 20260509092528 | 49 | 298 | 1.0 | 5.0 | 0.00 | 0.00 | 0.00 | 70 | 1019.5 |
| 20260509092017 | 50 | 222 | 2.0 | 5.0 | 0.00 | 0.00 | 0.00 | 68 | 1019.5 |
| 20260509091541 | 52 | 225 | 3.0 | 8.0 | 0.00 | 0.00 | 0.00 | 64 | 1019.5 |
| 20260509091025 | 53 | 355 | 1.0 | 8.0 | 0.00 | 0.00 | 0.00 | 57 | 1019.3 |
| 20260509090534 | 53 | 52 | 2.0 | 6.0 | 0.00 | 0.00 | 0.00 | 65 | 1019.3 |
| 20260509090026 | 53 | 286 | 2.0 | 4.0 | 0.00 | 0.00 | 0.00 | 64 | 1019.4 |
| 20260509085521 | 53 | 5 | 2.0 | 6.0 | 0.00 | 0.00 | 0.00 | 62 | 1019.3 |
| 20260509085028 | 53 | 229 | 3.0 | 6.0 | 0.00 | 0.00 | 0.00 | 59 | 1019.2 |
| 20260509084528 | 53 | 215 | 4.0 | 7.0 | 0.00 | 0.00 | 0.00 | 57 | 1019.2 |
| 20260509084033 | 53 | 181 | 2.0 | 7.0 | 0.00 | 0.00 | 0.00 | 60 | 1019.1 |
| 20260509083523 | 52 | 122 | 2.0 | 7.0 | 0.00 | 0.00 | 0.00 | 59 | 1019.1 |
| 20260509083019 | 49 | 186 | 1.0 | 5.0 | 0.00 | 0.00 | 0.00 | 70 | 1019.1 |
| 20260509082529 | 49 | 229 | 0.0 | 4.0 | 0.00 | 0.00 | 0.00 | 76 | 1019.0 |
| 20260509082018 | 50 | 275 | 1.0 | 6.0 | 0.00 | 0.00 | 0.00 | 73 | 1019.0 |
| 20260509081536 | 52 | 212 | 4.0 | 6.0 | 0.00 | 0.00 | 0.00 | 66 | 1018.9 |
| 20260509081022 | 54 | 211 | 3.0 | 7.0 | 0.00 | 0.00 | 0.00 | 62 | 1018.9 |
| 20260509080532 | 53 | 113 | 3.0 | 7.0 | 0.00 | 0.00 | 0.00 | 61 | 1018.9 |
| 20260509080028 | 53 | 12 | 2.0 | 4.0 | 0.00 | 0.00 | 0.00 | 64 | 1018.8 |
| 20260509075536 | 52 | 34 | 1.0 | 4.0 | 0.00 | 0.00 | 0.00 | 72 | 1018.8 |
| 20260509075027 | 51 | 205 | 0.0 | 4.0 | 0.00 | 0.00 | 0.00 | 71 | 1018.7 |
| 20260509074520 | 49 | 164 | 0.0 | 4.0 | 0.00 | 0.00 | 0.00 | 76 | 1018.7 |
| 20260509074038 | 48 | 229 | 0.0 | 3.0 | 0.00 | 0.00 | 0.00 | 81 | 1018.8 |
| 20260509073524 | 48 | 238 | 0.0 | 5.0 | 0.00 | 0.00 | 0.00 | 81 | 1018.7 |
| 20260509073023 | 49 | 243 | 2.0 | 5.0 | 0.00 | 0.00 | 0.00 | 82 | 1018.7 |
| 20260509072533 | 49 | 232 | 2.0 | 4.0 | 0.00 | 0.00 | 0.00 | 81 | 1018.6 |
| 20260509072021 | 50 | 229 | 3.0 | 4.0 | 0.00 | 0.00 | 0.00 | 81 | 1018.4 |
| 20260509071518 | 50 | 230 | 1.0 | 3.0 | 0.00 | 0.00 | 0.00 | 82 | 1018.4 |
| 20260509071026 | 50 | 253 | 0.0 | 2.0 | 0.00 | 0.00 | 0.00 | 81 | 1018.4 |
| 20260509070539 | 51 | 232 | 0.0 | 0.0 | 0.00 | 0.00 | 0.00 | 79 | 1018.3 |
| 20260509070029 | 50 | 219 | 0.0 | 0.0 | 0.00 | 0.00 | 0.00 | 78 | 1018.3 |
| 20260509065520 | 50 | 240 | 0.0 | 0.0 | 0.00 | 0.00 | 0.00 | 80 | 1018.2 |
| 20260509065030 | 49 | 247 | 0.0 | 0.0 | 0.00 | 0.00 | 0.00 | 79 | 1018.1 |
| 20260509064527 | 50 | 254 | 0.0 | 2.0 | 0.00 | 0.00 | 0.00 | 80 | 1018.0 |
| 20260509064034 | 50 | 246 | 1.0 | 4.0 | 0.00 | 0.00 | 0.00 | 80 | 1017.9 |
| 20260509063529 | 51 | 237 | 1.0 | 4.0 | 0.00 | 0.00 | 0.00 | 78 | 1017.8 |
| 20260509063033 | 52 | 197 | 2.0 | 4.0 | 0.00 | 0.00 | 0.00 | 76 | 1017.8 |
| 20260509062534 | 51 | 211 | 2.0 | 8.0 | 0.00 | 0.00 | 0.00 | 76 | 1017.7 |
| 20260509062022 | 53 | 211 | 4.0 | 8.0 | 0.00 | 0.00 | 0.00 | 75 | 1017.7 |
| 20260509061522 | 53 | 236 | 1.0 | 4.0 | 0.00 | 0.00 | 0.00 | 74 | 1017.6 |
| 20260509061028 | 53 | 131 | 1.0 | 5.0 | 0.00 | 0.00 | 0.00 | 75 | 1017.6 |
| 20260509060519 | 53 | 136 | 1.0 | 5.0 | 0.00 | 0.00 | 0.00 | 74 | 1017.7 |
| 20260509060036 | 54 | 196 | 1.0 | 5.0 | 0.00 | 0.00 | 0.00 | 73 | 1017.7 |
| 20260509055524 | 55 | 242 | 1.0 | 5.0 | 0.00 | 0.00 | 0.00 | 69 | 1017.7 |
| 20260509055034 | 55 | 181 | 0.0 | 2.0 | 0.00 | 0.00 | 0.00 | 67 | 1017.6 |
| 20260509054537 | 55 | 360 | 0.0 | 2.0 | 0.00 | 0.00 | 0.00 | 68 | 1017.6 |
| 20260509054023 | 55 | 355 | 0.0 | 3.0 | 0.00 | 0.00 | 0.00 | 71 | 1017.6 |
| 20260509053529 | 55 | 76 | 0.0 | 3.0 | 0.00 | 0.00 | 0.00 | 69 | 1017.6 |
| 20260509053024 | 55 | 236 | 0.0 | 2.0 | 0.00 | 0.00 | 0.00 | 66 | 1017.7 |
| 20260509052519 | 56 | 345 | 0.0 | 2.0 | 0.00 | 0.00 | 0.00 | 65 | 1017.7 |
| 20260509052032 | 56 | 204 | 0.0 | 2.0 | 0.00 | 0.00 | 0.00 | 66 | 1017.7 |
| 20260509051523 | 55 | 208 | 0.0 | 2.0 | 0.00 | 0.00 | 0.00 | 65 | 1017.6 |
| 20260509051036 | 55 | 101 | 0.0 | 2.0 | 0.00 | 0.00 | 0.00 | 65 | 1017.5 |
| 20260509050523 | 56 | 59 | 0.0 | 3.0 | 0.00 | 0.00 | 0.00 | 68 | 1017.6 |
| 20260509050025 | 56 | 17 | 0.0 | 3.0 | 0.00 | 0.00 | 0.00 | 67 | 1017.5 |
| 20260509045526 | 56 | 252 | 1.0 | 3.0 | 0.00 | 0.00 | 0.00 | 67 | 1017.5 |
| 20260509045038 | 56 | 69 | 1.0 | 3.0 | 0.00 | 0.00 | 0.00 | 67 | 1017.4 |
| 20260509044531 | 56 | 332 | 0.0 | 3.0 | 0.00 | 0.00 | 0.00 | 66 | 1017.5 |
| 20260509044021 | 55 | 248 | 0.0 | 4.0 | 0.00 | 0.00 | 0.00 | 69 | 1017.4 |
| 20260509043529 | 54 | 198 | 2.0 | 4.0 | 0.00 | 0.00 | 0.00 | 72 | 1017.4 |
| 20260509043025 | 54 | 182 | 0.0 | 4.0 | 0.00 | 0.00 | 0.00 | 70 | 1017.4 |
| 20260509042535 | 55 | 176 | 1.0 | 4.0 | 0.00 | 0.00 | 0.00 | 69 | 1017.4 |
| 20260509042024 | 55 | 193 | 1.0 | 3.0 | 0.00 | 0.00 | 0.00 | 69 | 1017.2 |
| 20260509041523 | 55 | 214 | 0.0 | 3.0 | 0.00 | 0.00 | 0.00 | 66 | 1017.4 |
| 20260509041033 | 55 | 229 | 1.0 | 5.0 | 0.00 | 0.00 | 0.00 | 68 | 1017.3 |
| 20260509040525 | 55 | 213 | 2.0 | 4.0 | 0.00 | 0.00 | 0.00 | 69 | 1017.2 |
| 20260509040042 | 55 | 201 | 0.0 | 0.0 | 0.00 | 0.00 | 0.00 | 70 | 1017.3 |
| 20260509035526 | 55 | 207 | 0.0 | 0.0 | 0.00 | 0.00 | 0.00 | 70 | 1017.4 |
| 20260509035037 | 56 | 178 | 0.0 | 0.0 | 0.00 | 0.00 | 0.00 | 68 | 1017.3 |
| 20260509034533 | 56 | 157 | 0.0 | 0.0 | 0.00 | 0.00 | 0.00 | 66 | 1017.3 |
| 20260509034019 | 57 | 157 | 0.0 | 0.0 | 0.00 | 0.00 | 0.00 | 64 | 1017.1 |
| 20260509033530 | 58 | 156 | 0.0 | 0.0 | 0.00 | 0.00 | 0.00 | 64 | 1017.0 |
| 20260509033026 | 58 | 151 | 0.0 | 0.0 | 0.00 | 0.00 | 0.00 | 59 | 1017.0 |
| 20260509032534 | 58 | 115 | 0.0 | 0.0 | 0.00 | 0.00 | 0.00 | 58 | 1017.0 |
| 20260509032026 | 58 | 115 | 0.0 | 0.0 | 0.00 | 0.00 | 0.00 | 58 | 1016.9 |
| 20260509031528 | 58 | 115 | 0.0 | 0.0 | 0.00 | 0.00 | 0.00 | 55 | 1016.8 |
| 20260509031030 | 59 | 114 | 0.0 | 3.0 | 0.00 | 0.00 | 0.00 | 52 | 1016.9 |
| 20260509030523 | 60 | 212 | 0.0 | 5.0 | 0.00 | 0.00 | 0.00 | 54 | 1016.7 |
| 20260509030019 | 60 | 190 | 2.0 | 5.0 | 0.00 | 0.00 | 0.00 | 47 | 1016.8 |
| 20260509025529 | 60 | 175 | 1.0 | 5.0 | 0.00 | 0.00 | 0.00 | 54 | 1016.7 |
| 20260509025019 | 61 | 180 | 2.0 | 5.0 | 0.00 | 0.00 | 0.00 | 53 | 1016.5 |
| 20260509024535 | 61 | 349 | 0.0 | 4.0 | 0.00 | 0.00 | 0.00 | 50 | 1016.5 |
| 20260509024029 | 62 | 194 | 0.0 | 3.0 | 0.00 | 0.00 | 0.00 | 47 | 1016.6 |
| 20260509023534 | 62 | 13 | 0.0 | 3.0 | 0.00 | 0.00 | 0.00 | 47 | 1016.6 |
| 20260509023030 | 63 | 355 | 0.0 | 2.0 | 0.00 | 0.00 | 0.00 | 45 | 1016.6 |
| 20260509022520 | 63 | 355 | 0.0 | 2.0 | 0.00 | 0.00 | 0.00 | 45 | 1016.7 |
| 20260509022029 | 63 | 126 | 0.0 | 2.0 | 0.00 | 0.00 | 0.00 | 49 | 1016.8 |
| 20260509021525 | 63 | 248 | 1.0 | 3.0 | 0.00 | 0.00 | 0.00 | 48 | 1016.7 |
| 20260509021034 | 63 | 134 | 1.0 | 5.0 | 0.00 | 0.00 | 0.00 | 45 | 1016.8 |
| 20260509020524 | 63 | 158 | 2.0 | 5.0 | 0.00 | 0.00 | 0.00 | 45 | 1016.9 |
| 20260509020019 | 64 | 119 | 0.0 | 7.0 | 0.00 | 0.00 | 0.00 | 46 | 1016.8 |
| 20260509015528 | 64 | 193 | 4.0 | 7.0 | 0.00 | 0.00 | 0.00 | 43 | 1016.8 |
| 20260509015023 | 64 | 122 | 2.0 | 6.0 | 0.00 | 0.00 | 0.00 | 45 | 1016.8 |
| 20260509014533 | 64 | 195 | 0.0 | 5.0 | 0.00 | 0.00 | 0.00 | 42 | 1016.8 |
| 20260509014028 | 64 | 183 | 2.0 | 6.0 | 0.00 | 0.00 | 0.00 | 44 | 1016.9 |
| 20260509013518 | 64 | 188 | 4.0 | 9.0 | 0.00 | 0.00 | 0.00 | 43 | 1016.9 |
| 20260509013036 | 64 | 190 | 5.0 | 9.0 | 0.00 | 0.00 | 0.00 | 42 | 1016.9 |
| 20260509012526 | 63 | 252 | 6.0 | 9.0 | 0.00 | 0.00 | 0.00 | 44 | 1017.0 |
| 20260509012034 | 64 | 199 | 5.0 | 9.0 | 0.00 | 0.00 | 0.00 | 44 | 1017.1 |
| 20260509011530 | 64 | 206 | 5.0 | 11.0 | 0.00 | 0.00 | 0.00 | 45 | 1017.1 |
| 20260509011018 | 64 | 171 | 7.0 | 11.0 | 0.00 | 0.00 | 0.00 | 43 | 1017.1 |
| 20260509010528 | 64 | 187 | 7.0 | 12.0 | 0.00 | 0.00 | 0.00 | 43 | 1017.0 |
| 20260509010027 | 64 | 180 | 7.0 | 12.0 | 0.00 | 0.00 | 0.00 | 44 | 1017.0 |
| 20260509005530 | 64 | 228 | 8.0 | 12.0 | 0.00 | 0.00 | 0.00 | 45 | 1016.9 |
| 20260509005018 | 64 | 155 | 8.0 | 14.0 | 0.00 | 0.00 | 0.00 | 44 | 1016.9 |
| 20260509004535 | 64 | 149 | 10.0 | 14.0 | 0.00 | 0.00 | 0.00 | 44 | 1017.0 |
| 20260509004028 | 65 | 212 | 8.0 | 14.0 | 0.00 | 0.00 | 0.00 | 43 | 1016.9 |
| 20260509003536 | 64 | 198 | 10.0 | 14.0 | 0.00 | 0.00 | 0.00 | 46 | 1016.9 |
| 20260509003031 | 65 | 175 | 7.0 | 13.0 | 0.00 | 0.00 | 0.00 | 45 | 1016.8 |
| 20260509002522 | 65 | 151 | 9.0 | 12.0 | 0.00 | 0.00 | 0.00 | 43 | 1016.7 |
| 20260509002030 | 65 | 175 | 5.0 | 9.0 | 0.00 | 0.00 | 0.00 | 43 | 1016.8 |
| 20260509001531 | 65 | 235 | 4.0 | 8.0 | 0.00 | 0.00 | 0.00 | 39 | 1016.8 |
| 20260509001036 | 65 | 180 | 4.0 | 11.0 | 0.00 | 0.00 | 0.00 | 42 | 1016.9 |
| 20260509000525 | 65 | 211 | 6.0 | 12.0 | 0.00 | 0.00 | 0.00 | 41 | 1016.9 |
| 20260509000021 | 65 | 207 | 9.0 | 14.0 | 0.00 | 0.00 | 0.00 | 39 | 1016.9 |
| 20260508235532 | 65 | 214 | 5.0 | 12.0 | 0.00 | 0.00 | 0.00 | 39 | 1016.9 |
| 20260508235021 | 66 | 246 | 4.0 | 10.0 | 0.00 | 0.00 | 0.00 | 39 | 1017.0 |
| 20260508234519 | 66 | 51 | 4.0 | 10.0 | 0.00 | 0.00 | 0.00 | 38 | 1016.8 |
| 20260508234027 | 65 | 169 | 5.0 | 10.0 | 0.00 | 0.00 | 0.00 | 44 | 1016.8 |
| 20260508233521 | 66 | 223 | 5.0 | 9.0 | 0.00 | 0.00 | 0.00 | 42 | 1016.9 |
| 20260508233034 | 65 | 222 | 6.0 | 9.0 | 0.00 | 0.00 | 0.00 | 44 | 1016.9 |
| 20260508232526 | 66 | 182 | 4.0 | 11.0 | 0.00 | 0.00 | 0.00 | 43 | 1016.9 |
| 20260508232041 | 65 | 182 | 7.0 | 11.0 | 0.00 | 0.00 | 0.00 | 41 | 1017.0 |
| 20260508231533 | 65 | 190 | 5.0 | 12.0 | 0.00 | 0.00 | 0.00 | 43 | 1017.0 |
| 20260508231022 | 65 | 184 | 3.0 | 12.0 | 0.00 | 0.00 | 0.00 | 46 | 1016.9 |
| 20260508230531 | 65 | 193 | 6.0 | 10.0 | 0.00 | 0.00 | 0.00 | 43 | 1016.9 |
| 20260508230027 | 65 | 28 | 3.0 | 10.0 | 0.00 | 0.00 | 0.00 | 47 | 1016.9 |
| 20260508225535 | 65 | 182 | 7.0 | 12.0 | 0.00 | 0.00 | 0.00 | 46 | 1017.0 |
| 20260508225025 | 65 | 178 | 2.0 | 12.0 | 0.00 | 0.00 | 0.00 | 48 | 1016.9 |
| 20260508224523 | 65 | 119 | 3.0 | 8.0 | 0.00 | 0.00 | 0.00 | 48 | 1017.1 |
| 20260508224037 | 64 | 94 | 2.0 | 10.0 | 0.00 | 0.00 | 0.00 | 50 | 1017.2 |
| 20260508223521 | 64 | 213 | 5.0 | 10.0 | 0.00 | 0.00 | 0.00 | 50 | 1017.3 |
| 20260508223038 | 64 | 238 | 5.0 | 10.0 | 0.00 | 0.00 | 0.00 | 50 | 1017.2 |
| 20260508222525 | 64 | 192 | 7.0 | 11.0 | 0.00 | 0.00 | 0.00 | 48 | 1017.2 |
| 20260508222022 | 64 | 163 | 8.0 | 11.0 | 0.00 | 0.00 | 0.00 | 48 | 1017.0 |
| 20260508221535 | 64 | 200 | 8.0 | 10.0 | 0.00 | 0.00 | 0.00 | 47 | 1017.0 |
| 20260508221026 | 64 | 207 | 8.0 | 11.0 | 0.00 | 0.00 | 0.00 | 47 | 1017.1 |
| 20260508220535 | 64 | 209 | 8.0 | 11.0 | 0.00 | 0.00 | 0.00 | 47 | 1017.2 |
| 20260508220103 | 64 | 205 | 8.0 | 12.0 | 0.00 | 0.00 | 0.00 | 46 | 1017.3 |
| 20260508215536 | 64 | 190 | 9.0 | 12.0 | 0.00 | 0.00 | 0.00 | 49 | 1017.2 |
| 20260508215027 | 64 | 187 | 8.0 | 12.0 | 0.00 | 0.00 | 0.00 | 49 | 1017.4 |
| 20260508214523 | 64 | 173 | 7.0 | 16.0 | 0.00 | 0.00 | 0.00 | 49 | 1017.4 |
| 20260508214030 | 64 | 194 | 9.0 | 16.0 | 0.00 | 0.00 | 0.00 | 48 | 1017.5 |
| 20260508213520 | 63 | 190 | 7.0 | 14.0 | 0.00 | 0.00 | 0.00 | 48 | 1017.5 |
| 20260508213038 | 64 | 175 | 7.0 | 15.0 | 0.00 | 0.00 | 0.00 | 50 | 1017.5 |
| 20260508212528 | 63 | 249 | 10.0 | 15.0 | 0.00 | 0.00 | 0.00 | 48 | 1017.5 |
| 20260508212034 | 63 | 183 | 8.0 | 15.0 | 0.00 | 0.00 | 0.00 | 49 | 1017.5 |
| 20260508211534 | 64 | 186 | 10.0 | 17.0 | 0.00 | 0.00 | 0.00 | 49 | 1017.5 |
| 20260508211025 | 63 | 152 | 6.0 | 14.0 | 0.00 | 0.00 | 0.00 | 50 | 1017.7 |
| 20260508210534 | 63 | 192 | 8.0 | 15.0 | 0.00 | 0.00 | 0.00 | 51 | 1017.6 |
| 20260508210030 | 63 | 200 | 7.0 | 15.0 | 0.00 | 0.00 | 0.00 | 50 | 1017.7 |
| 20260508205536 | 63 | 171 | 9.0 | 15.0 | 0.00 | 0.00 | 0.00 | 49 | 1017.7 |
| 20260508205027 | 63 | 174 | 7.0 | 12.0 | 0.00 | 0.00 | 0.00 | 50 | 1017.7 |
| 20260508204524 | 63 | 211 | 9.0 | 13.0 | 0.00 | 0.00 | 0.00 | 50 | 1017.8 |
| 20260508204034 | 63 | 205 | 8.0 | 13.0 | 0.00 | 0.00 | 0.00 | 48 | 1017.7 |
| 20260508203521 | 63 | 207 | 7.0 | 16.0 | 0.00 | 0.00 | 0.00 | 48 | 1017.7 |
| 20260508203018 | 63 | 221 | 9.0 | 16.0 | 0.00 | 0.00 | 0.00 | 46 | 1017.8 |
| 20260508202526 | 63 | 185 | 5.0 | 11.0 | 0.00 | 0.00 | 0.00 | 46 | 1017.7 |
| 20260508202037 | 63 | 200 | 7.0 | 11.0 | 0.00 | 0.00 | 0.00 | 45 | 1017.7 |
| 20260508201535 | 63 | 222 | 6.0 | 12.0 | 0.00 | 0.00 | 0.00 | 45 | 1017.6 |
| 20260508201024 | 63 | 250 | 8.0 | 12.0 | 0.00 | 0.00 | 0.00 | 44 | 1017.6 |
| 20260508200532 | 64 | 219 | 7.0 | 12.0 | 0.00 | 0.00 | 0.00 | 46 | 1017.6 |
| 20260508200028 | 63 | 184 | 7.0 | 10.0 | 0.00 | 0.00 | 0.00 | 46 | 1017.6 |
| 20260508195522 | 63 | 182 | 5.0 | 11.0 | 0.00 | 0.00 | 0.00 | 46 | 1017.5 |
| 20260508195031 | 63 | 193 | 9.0 | 11.0 | 0.00 | 0.00 | 0.00 | 45 | 1017.4 |
| 20260508194533 | 63 | 195 | 5.0 | 12.0 | 0.00 | 0.00 | 0.00 | 45 | 1017.4 |
| 20260508194039 | 63 | 180 | 6.0 | 14.0 | 0.00 | 0.00 | 0.00 | 44 | 1017.5 |
| 20260508193527 | 63 | 212 | 9.0 | 15.0 | 0.00 | 0.00 | 0.00 | 45 | 1017.5 |
| 20260508193028 | 63 | 206 | 5.0 | 8.0 | 0.00 | 0.00 | 0.00 | 45 | 1017.6 |
| 20260508192534 | 62 | 192 | 6.0 | 9.0 | 0.00 | 0.00 | 0.00 | 46 | 1017.6 |
| 20260508192024 | 62 | 205 | 6.0 | 10.0 | 0.00 | 0.00 | 0.00 | 45 | 1017.6 |
| 20260508191521 | 62 | 205 | 6.0 | 12.0 | 0.00 | 0.00 | 0.00 | 45 | 1017.6 |
| 20260508191029 | 63 | 215 | 8.0 | 12.0 | 0.00 | 0.00 | 0.00 | 44 | 1017.6 |
| 20260508190518 | 63 | 217 | 6.0 | 17.0 | 0.00 | 0.00 | 0.00 | 43 | 1017.7 |
| 20260508190041 | 63 | 185 | 8.0 | 17.0 | 0.00 | 0.00 | 0.00 | 42 | 1017.8 |
| 20260508185523 | 63 | 191 | 8.0 | 14.0 | 0.00 | 0.00 | 0.00 | 41 | 1017.8 |
| 20260508185037 | 63 | 210 | 8.0 | 11.0 | 0.00 | 0.00 | 0.00 | 42 | 1017.8 |
| 20260508184540 | 63 | 225 | 3.0 | 10.0 | 0.00 | 0.00 | 0.00 | 39 | 1017.8 |
| 20260508184021 | 63 | 206 | 6.0 | 9.0 | 0.00 | 0.00 | 0.00 | 39 | 1017.9 |
| 20260508183531 | 63 | 173 | 4.0 | 9.0 | 0.00 | 0.00 | 0.00 | 42 | 1017.9 |
| 20260508183025 | 63 | 207 | 2.0 | 10.0 | 0.00 | 0.00 | 0.00 | 40 | 1017.9 |
| 20260508182536 | 63 | 217 | 6.0 | 10.0 | 0.00 | 0.00 | 0.00 | 38 | 1017.8 |
| 20260508182025 | 63 | 140 | 8.0 | 12.0 | 0.00 | 0.00 | 0.00 | 39 | 1017.8 |
| 20260508181527 | 63 | 214 | 6.0 | 10.0 | 0.00 | 0.00 | 0.00 | 38 | 1017.9 |
| 20260508181031 | 63 | 167 | 3.0 | 10.0 | 0.00 | 0.00 | 0.00 | 43 | 1017.7 |
| 20260508180521 | 62 | 82 | 4.0 | 9.0 | 0.00 | 0.00 | 0.00 | 43 | 1017.8 |
| 20260508180038 | 63 | 247 | 1.0 | 6.0 | 0.00 | 0.00 | 0.00 | 46 | 1017.9 |
| 20260508175524 | 62 | 13 | 1.0 | 6.0 | 0.00 | 0.00 | 0.00 | 47 | 1017.7 |
| 20260508175038 | 62 | 136 | 1.0 | 5.0 | 0.00 | 0.00 | 0.00 | 49 | 1017.8 |
| 20260508174539 | 62 | 15 | 1.0 | 5.0 | 0.00 | 0.00 | 0.00 | 49 | 1017.7 |
| 20260508174023 | 62 | 95 | 1.0 | 5.0 | 0.00 | 0.00 | 0.00 | 51 | 1017.7 |
| 20260508173534 | 62 | 170 | 1.0 | 4.0 | 0.00 | 0.00 | 0.00 | 52 | 1017.7 |
| 20260508173029 | 61 | 263 | 1.0 | 4.0 | 0.00 | 0.00 | 0.00 | 49 | 1017.8 |
| 20260508172519 | 61 | 109 | 1.0 | 4.0 | 0.00 | 0.00 | 0.00 | 50 | 1017.7 |
| 20260508172029 | 61 | 125 | 1.0 | 6.0 | 0.00 | 0.00 | 0.00 | 51 | 1017.7 |
| 20260508171524 | 61 | 30 | 1.0 | 6.0 | 0.00 | 0.00 | 0.00 | 54 | 1017.7 |
| 20260508171034 | 61 | 298 | 1.0 | 5.0 | 0.00 | 0.00 | 0.00 | 52 | 1017.6 |
| 20260508170523 | 61 | 146 | 1.0 | 6.0 | 0.00 | 0.00 | 0.00 | 47 | 1017.6 |
| 20260508170039 | 61 | 321 | 0.0 | 2.0 | 0.00 | 0.00 | 0.00 | 53 | 1017.7 |
| 20260508165533 | 61 | 13 | 0.0 | 3.0 | 0.00 | 0.00 | 0.00 | 48 | 1017.7 |
| 20260508165037 | 60 | 360 | 1.0 | 3.0 | 0.00 | 0.00 | 0.00 | 50 | 1017.8 |
| 20260508164534 | 60 | 160 | 0.0 | 3.0 | 0.00 | 0.00 | 0.00 | 54 | 1017.7 |
| 20260508164025 | 60 | 224 | 0.0 | 3.0 | 0.00 | 0.00 | 0.00 | 50 | 1017.7 |
| 20260508163535 | 60 | 5 | 1.0 | 3.0 | 0.00 | 0.00 | 0.00 | 53 | 1017.7 |
| 20260508163036 | 60 | 351 | 1.0 | 3.0 | 0.00 | 0.00 | 0.00 | 49 | 1017.6 |
| 20260508162523 | 60 | 40 | 1.0 | 4.0 | 0.00 | 0.00 | 0.00 | 48 | 1017.7 |
| 20260508162033 | 60 | 340 | 1.0 | 4.0 | 0.00 | 0.00 | 0.00 | 49 | 1017.6 |
| 20260508161534 | 60 | 5 | 1.0 | 7.0 | 0.00 | 0.00 | 0.00 | 49 | 1017.6 |
| 20260508161023 | 59 | 336 | 2.0 | 7.0 | 0.00 | 0.00 | 0.00 | 49 | 1017.6 |
| 20260508160529 | 60 | 22 | 2.0 | 9.0 | 0.00 | 0.00 | 0.00 | 51 | 1017.6 |
| 20260508160023 | 60 | 34 | 2.0 | 9.0 | 0.00 | 0.00 | 0.00 | 52 | 1017.5 |
| 20260508155536 | 59 | 339 | 1.0 | 6.0 | 0.00 | 0.00 | 0.00 | 56 | 1017.6 |
| 20260508155023 | 59 | 34 | 2.0 | 6.0 | 0.00 | 0.00 | 0.00 | 57 | 1017.5 |
| 20260508154541 | 59 | 319 | 1.0 | 3.0 | 0.00 | 0.00 | 0.00 | 56 | 1017.7 |
| 20260508154028 | 58 | 168 | 1.0 | 4.0 | 0.00 | 0.00 | 0.00 | 60 | 1017.6 |
| 20260508153536 | 58 | 229 | 0.0 | 3.0 | 0.00 | 0.00 | 0.00 | 73 | 1017.6 |
| 20260508153033 | 57 | 66 | 1.0 | 4.0 | 0.00 | 0.00 | 0.00 | 72 | 1017.8 |
| 20260508152521 | 57 | 360 | 1.0 | 6.0 | 0.00 | 0.00 | 0.00 | 74 | 1017.8 |
| 20260508152035 | 57 | 331 | 1.0 | 6.0 | 0.00 | 0.00 | 0.00 | 72 | 1017.8 |
| 20260508151531 | 57 | 15 | 1.0 | 4.0 | 0.00 | 0.00 | 0.00 | 67 | 1017.8 |
| 20260508151023 | 56 | 209 | 0.0 | 3.0 | 0.00 | 0.00 | 0.00 | 74 | 1017.8 |
| 20260508150530 | 56 | 86 | 1.0 | 3.0 | 0.00 | 0.00 | 0.00 | 73 | 1017.8 |
| 20260508150032 | 56 | 5 | 0.0 | 3.0 | 0.00 | 0.00 | 0.00 | 71 | 1017.8 |
| 20260508145534 | 56 | 107 | 1.0 | 3.0 | 0.00 | 0.00 | 0.00 | 70 | 1017.8 |
| 20260508145123 | 55 | 172 | 1.0 | 7.0 | 0.00 | 0.00 | 0.00 | 73 | 1017.8 |
| 20260508144520 | 55 | 289 | 1.0 | 7.0 | 0.00 | 0.00 | 0.00 | 73 | 1017.7 |
| 20260508144032 | 55 | 315 | 0.0 | 4.0 | 0.00 | 0.00 | 0.00 | 75 | 1017.7 |
| 20260508143538 | 54 | 291 | 0.0 | 3.0 | 0.00 | 0.00 | 0.00 | 76 | 1017.7 |
| 20260508143033 | 53 | 355 | 1.0 | 3.0 | 0.00 | 0.00 | 0.00 | 78 | 1017.7 |
| 20260508142526 | 53 | 314 | 1.0 | 3.0 | 0.00 | 0.00 | 0.00 | 79 | 1017.7 |
| 20260508142031 | 53 | 267 | 1.0 | 3.0 | 0.00 | 0.00 | 0.00 | 80 | 1017.7 |
| 20260508141529 | 53 | 112 | 0.0 | 2.0 | 0.00 | 0.00 | 0.00 | 82 | 1017.6 |
| 20260508141024 | 53 | 60 | 0.0 | 2.0 | 0.00 | 0.00 | 0.00 | 82 | 1017.4 |
| 20260508140532 | 53 | 343 | 0.0 | 4.0 | 0.00 | 0.00 | 0.00 | 83 | 1017.6 |
| 20260508140034 | 53 | 244 | 0.0 | 2.0 | 0.00 | 0.00 | 0.00 | 83 | 1017.6 |
| 20260508135540 | 52 | 346 | 0.0 | 3.0 | 0.00 | 0.00 | 0.00 | 83 | 1017.6 |
| 20260508135028 | 52 | 339 | 1.0 | 3.0 | 0.00 | 0.00 | 0.00 | 85 | 1017.6 |
| 20260508134531 | 52 | 226 | 0.0 | 3.0 | 0.00 | 0.00 | 0.00 | 85 | 1017.6 |
| 20260508134035 | 52 | 355 | 0.0 | 2.0 | 0.00 | 0.00 | 0.00 | 86 | 1017.4 |
| 20260508133524 | 51 | 346 | 0.0 | 5.0 | 0.00 | 0.00 | 0.00 | 87 | 1017.6 |
| 20260508133021 | 51 | 250 | 0.0 | 5.0 | 0.00 | 0.00 | 0.00 | 87 | 1017.4 |
| 20260508132532 | 51 | 32 | 0.0 | 3.0 | 0.00 | 0.00 | 0.00 | 87 | 1017.4 |
| 20260508132038 | 51 | 221 | 0.0 | 3.0 | 0.00 | 0.00 | 0.00 | 88 | 1017.3 |
| 20260508131536 | 50 | 309 | 0.0 | 3.0 | 0.00 | 0.00 | 0.00 | 89 | 1017.2 |
| 20260508131024 | 50 | 350 | 1.0 | 3.0 | 0.00 | 0.00 | 0.00 | 89 | 1017.2 |
| 20260508130538 | 50 | 269 | 0.0 | 5.0 | 0.00 | 0.00 | 0.00 | 89 | 1017.2 |
| 20260508130029 | 50 | 22 | 1.0 | 5.0 | 0.00 | 0.00 | 0.00 | 90 | 1017.2 |
| 20260508125522 | 50 | 319 | 0.0 | 3.0 | 0.00 | 0.00 | 0.00 | 91 | 1017.0 |
| 20260508125031 | 50 | 37 | 0.0 | 4.0 | 0.00 | 0.00 | 0.00 | 90 | 1017.1 |
| 20260508124529 | 49 | 355 | 2.0 | 4.0 | 0.00 | 0.00 | 0.00 | 91 | 1017.1 |
| 20260508124037 | 49 | 9 | 1.0 | 7.0 | 0.00 | 0.00 | 0.00 | 93 | 1017.1 |
| 20260508123525 | 47 | 342 | 0.0 | 7.0 | 0.00 | 0.00 | 0.00 | 92 | 1017.1 |
| 20260508123022 | 47 | 202 | 4.0 | 7.0 | 0.00 | 0.00 | 0.00 | 91 | 1016.9 |
| 20260508122534 | 47 | 171 | 2.0 | 7.0 | 0.00 | 0.00 | 0.00 | 90 | 1017.0 |
| 20260508122023 | 48 | 233 | 2.0 | 7.0 | 0.00 | 0.00 | 0.00 | 91 | 1017.0 |
| 20260508121542 | 48 | 209 | 4.0 | 7.0 | 0.00 | 0.00 | 0.00 | 91 | 1016.9 |
| 20260508121027 | 47 | 225 | 1.0 | 5.0 | 0.00 | 0.00 | 0.00 | 89 | 1016.9 |
| 20260508120538 | 48 | 255 | 1.0 | 5.0 | 0.00 | 0.00 | 0.00 | 88 | 1017.0 |
| 20260508120033 | 50 | 31 | 0.0 | 3.0 | 0.00 | 0.00 | 0.00 | 90 | 1016.9 |
| 20260508115521 | 49 | 307 | 1.0 | 4.0 | 0.00 | 0.00 | 0.00 | 91 | 1016.8 |
| 20260508115035 | 49 | 25 | 1.0 | 4.0 | 0.00 | 0.00 | 0.00 | 92 | 1016.9 |
| 20260508114531 | 47 | 189 | 2.0 | 4.0 | 0.00 | 0.00 | 0.00 | 90 | 1016.9 |
| 20260508114026 | 48 | 223 | 0.0 | 4.0 | 0.00 | 0.00 | 0.00 | 90 | 1016.8 |
| 20260508113533 | 48 | 217 | 2.0 | 4.0 | 0.00 | 0.00 | 0.00 | 90 | 1016.9 |
| 20260508113026 | 48 | 213 | 1.0 | 4.0 | 0.00 | 0.00 | 0.00 | 88 | 1016.9 |
| 20260508112536 | 50 | 215 | 3.0 | 5.0 | 0.00 | 0.00 | 0.00 | 89 | 1016.9 |
| 20260508112023 | 50 | 9 | 1.0 | 3.0 | 0.00 | 0.00 | 0.00 | 90 | 1016.9 |